Location: Quaker Farms
(41.4276°N, 73.1557°W)
Time: 23:01:59
(UTC+00:00)

Vanguard 1 - Pass Details

Date: 22 June 2021
Orbit: 651 x 3832 km, 34.2° (Epoch: 26 July)

Event Time Altitude Azimuth Distance (km) Brightness Sun altitude
Rises 07:42:25 0° 282° (WNW) 7,056 14.2 -14.4°
Reaches altitude 10° 07:48:37 10° 273° (W) 5,504 13.5 -13.7°
Maximum altitude 08:00:00 27° 224° (SW) 3,116 12.0 -12.2°
Drops below altitude 10° 08:07:16 10° 170° (S) 3,410 12.5 -11.3°
Sets 08:10:06 0° 157° (SSE) 4,037 13.0 -10.9°
